#timestamp,LO_Frequency,Hit,StdDev 
1514073615.5,286047003.5,N
1514073635.4,286046999.7,N
1514073655.2,286047002.0,N
1514073675.0,286047002.1,N
1514073675.9,286047002.1,N
1514073695.8,286047004.4,N
1514073715.6,286047001.3,N
1514073735.4,286047001.6,N
1514073755.3,286047001.4,N
1514073775.1,286047001.9,N
1514073795.9,286047000.0,N
1514073815.7,286047000.6,N
1514073835.5,286047000.5,N
1514073855.4,286046998.9,N
1514073875.2,286047000.0,N
1514073895.1,286047000.4,N
1514073896.0,286047000.4,N
1514073915.8,286047000.8,N
1514073935.6,286047000.6,N
1514073955.5,286047001.0,N
1514073975.3,286046998.5,N
1514073995.1,286046998.8,N
1514074015.9,286046998.2,N
1514074035.7,286047000.6,N
1514074055.6,286047000.1,N
1514074075.4,286047000.3,N
1514074095.2,286046999.9,N
1514074115.1,286047000.8,N
1514074116.0,286047000.8,N
1514074135.8,286047003.1,N
1514074155.6,286047003.1,N
1514074175.5,286047003.1,N
1514074195.3,286047004.2,N
1514074215.2,286047001.5,N
1514074235.9,286047001.8,N
1514074255.7,286047001.6,N
1514074275.6,286047002.4,N
1514074295.4,286047002.0,N
1514074315.3,286047001.8,N
1514074335.1,286047001.4,N
1514074336.0,286047001.4,N
1514074355.8,286047002.2,N
1514074375.7,286047000.0,N
1514074395.5,286047001.4,N
1514074415.3,286047001.7,N
1514074435.2,286047000.4,N
1514074455.0,286046999.9,N
1514074455.9,286046999.9,N
1514074475.8,286046999.9,N
1514074495.6,286047002.3,N
1514074515.4,286046999.9,N
1514074535.3,286047002.2,N
1514074555.1,286047000.5,N
1514074575.9,286047000.7,N
1514074595.7,286047000.4,N
1514074615.5,286047001.1,N
1514074635.4,286046999.3,N
1514074655.2,286046999.1,N
1514074675.0,286047002.2,N
1514074675.9,286047002.2,N
1514074695.8,286047003.8,Y
1514074715.6,286047000.7,P
1514074735.5,286047000.4,N
1514074755.3,286047001.0,N
1514074775.1,286047000.9,N
1514074795.9,286046996.9,Y
1514074815.7,286046997.0,P
1514074835.6,286046996.8,N
1514074855.4,286046999.1,N
1514074875.2,286046997.0,N
1514074895.1,286046996.3,N
1514074896.0,286046996.3,N
1514074915.8,286046992.8,Y
1514074935.7,286046994.1,P
1514074955.5,286046996.1,N
1514074975.3,286046998.0,N
1514074995.2,286046999.5,N
1514075015.0,286046998.8,N
1514075015.9,286046998.8,N
1514075035.7,286047001.0,N
1514075055.6,286046999.8,N
1514075075.4,286046998.1,N
1514075095.3,286047002.6,N
1514075115.1,286047001.8,N
1514075116.0,286047001.8,N
1514075135.8,286047002.6,N
1514075155.7,286047003.8,N
1514075175.5,286047003.3,N
1514075195.3,286047003.4,N
1514075215.2,286047005.9,N
1514075235.0,286047002.1,N
1514075235.9,286047002.1,N
1514075255.8,286046998.4,N
1514075275.6,286046999.9,N
1514075295.4,286047000.3,N
1514075315.3,286047001.7,N
1514075335.1,286047003.8,N
1514075355.9,286047004.1,N
1514075375.7,286047003.4,N
1514075395.5,286047003.5,N
1514075415.4,286047003.6,N
1514075435.2,286047003.8,N
1514075455.0,286047004.2,N
1514075455.9,286047004.2,N
1514075475.8,286047002.3,N
1514075495.6,286046999.7,N
1514075515.5,286047003.6,N
1514075535.3,286047001.7,N
1514075555.1,286047002.4,N
1514075575.9,286047002.5,N
1514075595.7,286047001.6,N
1514075615.5,286047002.8,N
1514075635.4,286047000.9,N
1514075655.2,286047000.6,N
1514075675.1,286047002.6,N
1514075676.0,286047002.6,N
1514075695.8,286047004.2,N
1514075715.6,286047000.1,N
1514075735.5,286047001.2,N
1514075755.3,286047002.6,N
1514075775.2,286047000.6,N
1514075795.9,286047002.2,N
1514075815.7,286047002.8,N
1514075835.6,286047001.0,N
1514075855.4,286046999.6,N
1514075875.2,286046999.1,N
1514075895.1,286046998.6,N
1514075896.0,286046998.6,N
1514075915.8,286046997.1,N
1514075935.7,286046996.9,N
1514075955.5,286046995.6,N
1514075975.3,286046995.3,N
1514075995.2,286046997.8,N
1514076015.0,286046997.1,N
1514076015.9,286046997.1,N
1514076035.8,286046996.5,N
1514076055.6,286047000.7,N
1514076075.4,286046999.7,N
1514076095.3,286047004.0,N
1514076115.1,286047001.7,N
1514076135.8,286047006.0,N
1514076155.7,286047007.5,N
1514076175.5,286047006.1,N
1514076195.4,286047003.3,N
1514076215.2,286047003.8,N
1514076235.0,286047011.9,Y
1514076235.9,286047004.4,P
1514076255.8,286046999.8,N
1514076275.6,286046999.3,N
1514076295.5,286046998.3,N
1514076315.3,286047000.7,N
1514076335.1,286047000.8,N
1514076355.9,286046999.4,N
1514076375.7,286046998.9,N
1514076395.5,286046997.0,N
1514076445.4,286046998.6,E
1514076455.3,286047000.2,N
1514076475.2,286047002.6,P
1514076495.0,286047003.9,P
1514076495.9,286047003.9,N
1514076515.8,286047004.1,N
1514076535.6,286047003.0,N
1514076555.4,286047004.1,Y
1514076575.3,286047000.5,P
1514076595.1,286047001.8,N
1514076615.9,286047001.0,N
1514076635.7,286047000.5,N
1514076655.5,286047000.5,N
1514076675.4,286047002.1,N
1514076695.2,286047002.0,N
1514076715.0,286047002.1,N
1514076715.9,286047002.1,N
1514076735.8,286046998.2,N
1514076755.6,286046999.3,N
1514076775.5,286047002.1,N
1514076795.3,286047003.7,N
1514076815.1,286047001.3,N
1514076835.9,286047002.2,N
1514076855.7,286047000.7,N
1514076875.6,286046998.1,N
1514076895.4,286046997.2,N
1514076915.2,286046997.1,N
1514076935.1,286046997.6,N
1514076936.0,286046997.6,N
1514076955.8,286046995.9,N
1514076975.6,286046997.9,N
1514076995.5,286046995.1,N
1514077015.3,286046996.9,N
1514077035.2,286046998.3,N
1514077055.9,286047002.5,N
1514077075.7,286047002.2,N
1514077095.6,286047001.9,N
1514077115.4,286047002.3,N
1514077135.3,286046998.6,N
1514077155.1,286047000.2,N
1514077156.0,286047000.2,N
1514077175.8,286047001.5,N
1514077195.7,286047001.7,N
